Volver al catálogo

STARLINK-11101

ActivoComunicacionesVLEO
NORAD 59715·PAYLOAD·🇺🇸 United States

Lanzado May 10, 2024 desde Vandenberg Space Force Base

Loading…

Próximos Pases (próximas 24 horas)

TLE

ActualizadoSource: CelesTrak SupGP

Época: Sep 15, 2026, 02:55 UTC

1 59715C 24088H   26258.12201389  .00072776  00000+0  59911-3 0  2582
2 59715  53.1557 112.3470 0001094  96.4651 347.9174 15.69687997    11

Sigue STARLINK-11101 en tiempo real con AllMySat

Download on the App Store